Weather History for Clinton, IA

Change the Weather History Date:

Tuesday, April 23, 2013

  Actual Average Record
Temperature  
Mean Temperature 44 °F -  
Max Temperature 51 °F 64 °F 89 °F (1980)
Min Temperature 37 °F 42 °F 26 °F (1956)
Degree Days  
Heating Degree Days 21    
Growing Degree Days 0 (Base 50)    
Moisture  
Dew Point 36 °F    
Average Humidity 80    
Maximum Humidity 87    
Minimum Humidity 70    
Precipitation  
Precipitation 0.29 in - - ()
Sea Level Pressure  
Sea Level Pressure 30.01 in    
Wind  
Wind Speed 10 mph (NNW)    
Max Wind Speed 20 mph    
Max Gust Speed 23 mph    
Visibility 10 miles    
Events      
Averages and records for this station are not official NWS values.
T = Trace of Precipitation, MM = Missing Value Source: NWS Daily Summary

Daily Weather History Graph

Daily Weather History Graph

Search for Another Location

Airport:

Trip Planner

Search our weather history database for the weather conditions in past years. The results will help you decide how hot, cold, wet, or windy it might be!

Date:

Astronomy

Apr. 23, 2013 Rise Set
Actual Time 6:08 AM CDT 7:51 PM CDT
Civil Twilight 5:38 AM CDT 8:21 PM CDT
Nautical Twilight 5:03 AM CDT 8:57 PM CDT
Astronomical Twilight 4:24 AM CDT 9:35 PM CDT
Moon 5:45 PM CDT (4/23) 4:38 AM CDT (4/23)
Length of Visible Light 14h 42m
Length of Day
13h 42m
Waxing Gibbous, 94% of the Moon is Illuminated
Apr 23
Waxing Gibbous
Apr 25
Full
May 2
Last Quarter
May 9
New
May 17
First Quarter

Hourly Weather History & Observations

Time (CDT) Temp. Windchill Dew Point Humidity Pressure Visibility Wind Dir Wind Speed Gust Speed Precip Events Conditions
12:15 AM 51.8 °F - 44.6 °F 76% 30.05 in 10.0 mi SW 9.2 mph - N/A   Overcast
12:35 AM 51.8 °F - 46.4 °F 82% 30.04 in 10.0 mi SSW 4.6 mph - 0.01 in   Overcast
12:55 AM 51.8 °F - 46.4 °F 82% 30.03 in 10.0 mi South 5.8 mph - 0.01 in   Overcast
1:15 AM 51.8 °F - 46.4 °F 82% 30.01 in 10.0 mi South 6.9 mph - N/A   Mostly Cloudy
1:35 AM 50.0 °F - 44.6 °F 82% 29.99 in 10.0 mi SE 8.1 mph - N/A   Partly Cloudy
1:55 AM 51.8 °F - 46.4 °F 82% 29.99 in 10.0 mi SSE 8.1 mph - N/A   Scattered Clouds
2:15 AM 51.8 °F - 46.4 °F 82% 29.98 in 10.0 mi SSE 5.8 mph - N/A   Scattered Clouds
2:35 AM 51.8 °F - 46.4 °F 82% 29.99 in 10.0 mi SSE 5.8 mph - N/A   Scattered Clouds
2:55 AM 48.2 °F - 44.6 °F 87% 29.99 in 10.0 mi Calm Calm - N/A   Scattered Clouds
3:15 AM 48.2 °F - 44.6 °F 87% 30.00 in 10.0 mi West 5.8 mph - N/A   Scattered Clouds
3:35 AM 48.2 °F - 44.6 °F 87% 29.98 in 10.0 mi WSW 3.5 mph - N/A   Scattered Clouds
3:55 AM 48.2 °F - 44.6 °F 87% 29.98 in 10.0 mi SSW 4.6 mph - N/A   Mostly Cloudy
4:15 AM 48.2 °F - 44.6 °F 87% 29.98 in 6.0 mi WSW 4.6 mph - N/A   Partly Cloudy
4:35 AM 48.2 °F - 44.6 °F 87% 29.96 in 7.0 mi Calm Calm - N/A   Clear
5:15 AM 48.2 °F - 44.6 °F 87% 29.98 in 9.0 mi WNW 6.9 mph - N/A   Clear
5:35 AM 48.2 °F - 42.8 °F 82% 30.00 in 10.0 mi WNW 19.6 mph - N/A   Mostly Cloudy
5:55 AM 44.6 °F 37.4 °F 39.2 °F 81% 30.00 in 10.0 mi WNW 16.1 mph - N/A   Overcast
6:15 AM 44.6 °F 36.9 °F 37.4 °F 76% 29.99 in 10.0 mi NW 18.4 mph 21.9 mph N/A   Overcast
6:35 AM 42.8 °F 35.4 °F 37.4 °F 81% 29.99 in 10.0 mi NW 15.0 mph - N/A   Mostly Cloudy
6:55 AM 42.8 °F 35.4 °F 35.6 °F 76% 29.99 in 10.0 mi NW 15.0 mph - N/A   Scattered Clouds
7:15 AM 41.0 °F 33.1 °F 35.6 °F 81% 30.00 in 10.0 mi NW 15.0 mph - N/A   Partly Cloudy
7:35 AM 39.2 °F 30.2 °F 33.8 °F 81% 30.01 in 10.0 mi NW 17.3 mph - N/A   Scattered Clouds
7:55 AM 39.2 °F 30.5 °F 33.8 °F 81% 30.02 in 10.0 mi NNW 16.1 mph - N/A   Partly Cloudy
8:15 AM 39.2 °F 30.5 °F 33.8 °F 81% 30.00 in 10.0 mi NNW 16.1 mph - N/A   Scattered Clouds
8:35 AM 39.2 °F 30.2 °F 32.0 °F 75% 30.01 in 10.0 mi NNW 17.3 mph - N/A   Scattered Clouds
8:55 AM 39.2 °F 31.2 °F 32.0 °F 75% 30.01 in 10.0 mi NNW 13.8 mph - N/A   Mostly Cloudy
9:15 AM 39.2 °F 32.0 °F 33.8 °F 81% 30.01 in 10.0 mi NNW 11.5 mph - N/A   Overcast
9:35 AM 39.2 °F 31.6 °F 32.0 °F 75% 30.03 in 10.0 mi NNW 12.7 mph - N/A   Overcast
9:55 AM 39.2 °F 31.2 °F 33.8 °F 81% 30.03 in 10.0 mi NNW 13.8 mph - 0.02 in   Overcast
10:15 AM 37.4 °F 28.9 °F 33.8 °F 87% 30.04 in 9.0 mi NNW 13.8 mph - 0.01 in   Overcast
10:35 AM 37.4 °F 28.9 °F 33.8 °F 87% 30.04 in 9.0 mi NNW 13.8 mph - 0.04 in   Overcast
11:15 AM 37.4 °F 28.9 °F 32.0 °F 81% 30.04 in 10.0 mi NNW 13.8 mph - 0.03 in   Overcast
11:35 AM 37.4 °F 28.9 °F 33.8 °F 87% 30.04 in 10.0 mi NNW 13.8 mph - 0.07 in   Overcast
11:55 AM 37.4 °F 30.8 °F 33.8 °F 87% 30.04 in 10.0 mi NNW 9.2 mph - 0.10 in   Mostly Cloudy
12:15 PM 37.4 °F 29.8 °F 33.8 °F 87% 30.03 in 10.0 mi NNW 11.5 mph - 0.04 in   Overcast
12:35 PM 37.4 °F 29.3 °F 33.8 °F 87% 30.04 in 10.0 mi NNW 12.7 mph - 0.06 in   Overcast
12:55 PM 39.2 °F 30.8 °F 33.8 °F 81% 30.03 in 10.0 mi NNW 15.0 mph - 0.07 in   Overcast
1:15 PM 37.4 °F 28.9 °F 33.8 °F 87% 30.03 in 10.0 mi NNW 13.8 mph - N/A   Overcast
1:35 PM 37.4 °F 28.9 °F 32.0 °F 81% 30.02 in 10.0 mi NNW 13.8 mph - 0.01 in   Overcast
1:55 PM 37.4 °F 28.5 °F 33.8 °F 87% 30.02 in 10.0 mi North 15.0 mph - 0.01 in   Overcast
2:15 PM 37.4 °F 28.2 °F 33.8 °F 87% 30.02 in 10.0 mi NNW 16.1 mph - 0.01 in   Mostly Cloudy
2:35 PM 37.4 °F 28.9 °F 33.8 °F 87% 30.02 in 10.0 mi North 13.8 mph - 0.02 in   Mostly Cloudy
2:55 PM 37.4 °F 28.5 °F 33.8 °F 87% 30.01 in 7.0 mi North 15.0 mph 18.4 mph 0.03 in   Mostly Cloudy
3:15 PM 37.4 °F 28.5 °F 32.0 °F 81% 30.00 in 10.0 mi North 15.0 mph - 0.01 in   Overcast
3:35 PM 39.2 °F 30.5 °F 33.8 °F 81% 30.00 in 10.0 mi North 16.1 mph - 0.01 in   Mostly Cloudy
3:55 PM 39.2 °F 30.2 °F 32.0 °F 75% 30.00 in 10.0 mi North 17.3 mph - 0.01 in   Mostly Cloudy
4:15 PM 39.2 °F 29.8 °F 32.0 °F 75% 29.99 in 10.0 mi NNW 18.4 mph 21.9 mph N/A   Mostly Cloudy
4:35 PM 39.2 °F 30.5 °F 32.0 °F 75% 30.00 in 10.0 mi NNW 16.1 mph - N/A   Overcast
4:55 PM 39.2 °F 30.2 °F 32.0 °F 75% 30.00 in 10.0 mi North 17.3 mph 23.0 mph N/A   Scattered Clouds
5:15 PM 39.2 °F 31.6 °F 33.8 °F 81% 30.01 in 10.0 mi North 12.7 mph - N/A   Mostly Cloudy
5:35 PM 39.2 °F 31.6 °F 32.0 °F 75% 30.01 in 10.0 mi North 12.7 mph - N/A   Mostly Cloudy
5:55 PM 39.2 °F 32.0 °F 33.8 °F 81% 30.01 in 10.0 mi NNW 11.5 mph - N/A   Mostly Cloudy
6:15 PM 39.2 °F 31.6 °F 32.0 °F 75% 30.01 in 10.0 mi North 12.7 mph - N/A   Mostly Cloudy
6:35 PM 39.2 °F 33.0 °F 32.0 °F 75% 30.01 in 10.0 mi North 9.2 mph - N/A   Partly Cloudy
6:55 PM 39.2 °F 33.0 °F 33.8 °F 81% 30.01 in 10.0 mi North 9.2 mph - N/A   Clear
7:15 PM 39.2 °F 34.2 °F 33.8 °F 81% 30.01 in 10.0 mi North 6.9 mph - N/A   Clear
7:35 PM 39.2 °F 34.2 °F 32.0 °F 75% 30.02 in 10.0 mi NNW 6.9 mph - N/A   Clear
7:55 PM 39.2 °F 33.0 °F 30.2 °F 70% 30.02 in 10.0 mi NNW 9.2 mph - N/A   Clear
8:15 PM 39.2 °F 34.2 °F 32.0 °F 75% 30.02 in 10.0 mi North 6.9 mph - N/A   Scattered Clouds
8:35 PM 39.2 °F 34.2 °F 32.0 °F 75% 30.01 in 10.0 mi NNW 6.9 mph - N/A   Mostly Cloudy
8:55 PM 39.2 °F 33.6 °F 32.0 °F 75% 30.02 in 10.0 mi NNW 8.1 mph - N/A   Scattered Clouds
9:15 PM 39.2 °F 33.0 °F 32.0 °F 75% 30.03 in 10.0 mi NNW 9.2 mph - N/A   Mostly Cloudy
9:35 PM 39.2 °F 33.0 °F 30.2 °F 70% 30.03 in 10.0 mi NNW 9.2 mph - N/A   Partly Cloudy
9:55 PM 39.2 °F 33.0 °F 30.2 °F 70% 30.03 in 10.0 mi NNW 9.2 mph - N/A   Mostly Cloudy
10:15 PM 39.2 °F 32.5 °F 30.2 °F 70% 30.03 in 10.0 mi NNW 10.4 mph - N/A   Scattered Clouds
10:35 PM 37.4 °F 29.8 °F 30.2 °F 75% 30.03 in 10.0 mi North 11.5 mph - N/A   Clear
10:55 PM 37.4 °F 29.8 °F 30.2 °F 75% 30.03 in 10.0 mi NNW 11.5 mph - N/A   Mostly Cloudy
11:15 PM 37.4 °F 30.3 °F 30.2 °F 75% 30.04 in 10.0 mi NNW 10.4 mph - N/A   Scattered Clouds
11:35 PM 37.4 °F 30.3 °F 30.2 °F 75% 30.04 in 10.0 mi NNW 10.4 mph - N/A   Scattered Clouds
11:55 PM 37.4 °F 30.3 °F 30.2 °F 75% 30.05 in 10.0 mi NNW 10.4 mph - N/A   Overcast